Weather History for Idaho Cnty AP, Grangeville, I, ID

Change the Weather History Date:

Friday, February 7, 2014

  Actual Average (KLWS) Record (KLWS)
Temperature  
Mean Temperature 18 °F 38 °F  
Max Temperature 25 °F 45 °F 61 °F (1953)
Min Temperature 11 °F 31 °F -13 °F (1929)
Degree Days  
Heating Degree Days 47 27  
Month to date heating degree days 194  
Since 1 July heating degree days 3313  
Cooling Degree Days 0 0  
Month to date cooling degree days 0  
Year to date cooling degree days 0  
Moisture  
Dew Point 9 °F    
Average Humidity 82    
Maximum Humidity 87    
Minimum Humidity 68    
Precipitation  
Precipitation 0.00 in 0.03 in 0.76 in (1938)
Month to date precipitation 0.20  
Year to date precipitation 1.28  
Snow  
Snow 0.00 in 0.10 in 5.00 in (1985)
Month to date snowfall 0.6  
Since 1 July snowfall 8.3  
Snow Depth -    
Sea Level Pressure  
Sea Level Pressure 29.77 in    
Wind  
Wind Speed 4 mph (East)    
Max Wind Speed 16 mph    
Max Gust Speed 20 mph    
Visibility 8 miles    
Events      
T = Trace of Precipitation, MM = Missing Value Source: NWS Daily Summary

Daily Weather History Graph

Daily Weather History Graph

Search for Another Location

Airport:

Trip Planner

Search our weather history database for the weather conditions in past years. The results will help you decide how hot, cold, wet, or windy it might be!

Date:

Astronomy

Feb. 07, 2014 Rise Set
Actual Time 6:58 AM PST 4:59 PM PST
Civil Twilight 6:27 AM PST 5:30 PM PST
Nautical Twilight 5:52 AM PST 6:05 PM PST
Astronomical Twilight 5:17 AM PST 6:40 PM PST
Moon 11:10 AM PST (2/7) 1:21 AM PST (2/7)
Length of Visible Light 11h 03m
Length of Day
10h 00m
First Quarter, 60% of the Moon is Illuminated
Feb 7
First Quarter
Feb 14
Full
Feb 22
Last Quarter
Mar 1
New
Mar 8
First Quarter

Hourly Weather History & Observations

Time (PST) Temp. Windchill Dew Point Humidity Pressure Visibility Wind Dir Wind Speed Gust Speed Precip Events Conditions
12:15 AM 11.8 °F 3.9 °F 8.4 °F 86% 29.69 in 1.8 mi East 4.6 mph - N/A   Overcast
12:35 AM 11.8 °F - 8.4 °F 86% 29.68 in 10.0 mi Calm Calm - N/A   Overcast
12:55 AM 11.8 °F 5.7 °F 8.2 °F 85% 29.68 in 10.0 mi ENE 3.5 mph - N/A   Overcast
1:15 AM 11.8 °F - 8.2 °F 85% 29.68 in 10.0 mi Calm Calm - N/A   Overcast
1:35 AM 12.0 °F - 8.4 °F 85% 29.68 in 10.0 mi Calm Calm - N/A   Overcast
1:55 AM 12.2 °F - 8.4 °F 85% 29.68 in 10.0 mi Calm Calm - N/A   Overcast
2:15 AM 12.2 °F - 8.4 °F 85% 29.68 in 10.0 mi Calm Calm - N/A   Overcast
2:35 AM 12.0 °F - 8.4 °F 85% 29.68 in 10.0 mi Calm Calm - N/A   Overcast
2:55 AM 11.7 °F 5.5 °F 8.1 °F 85% 29.67 in 10.0 mi East 3.5 mph - N/A   Overcast
3:15 AM 11.7 °F 3.7 °F 8.2 °F 86% 29.66 in 10.0 mi ESE 4.6 mph - N/A   Overcast
3:35 AM 12.9 °F - 9.1 °F 85% 29.66 in 10.0 mi Calm Calm - N/A   Overcast
3:55 AM 12.6 °F - 9.0 °F 85% 29.66 in 10.0 mi Calm Calm - N/A   Overcast
4:15 AM 12.9 °F 6.9 °F 9.3 °F 86% 29.66 in 10.0 mi NE 3.5 mph - N/A   Overcast
4:35 AM 14.0 °F 1.2 °F 10.2 °F 85% 29.66 in 10.0 mi NNE 10.4 mph - N/A   Overcast
4:55 AM 14.2 °F 2.2 °F 10.6 °F 86% 29.66 in 10.0 mi East 9.2 mph - N/A   Overcast
5:15 AM 14.0 °F 2.9 °F 10.4 °F 86% 29.66 in 10.0 mi ENE 8.1 mph - N/A   Overcast
5:35 AM 13.5 °F 5.8 °F 9.7 °F 85% 29.67 in 10.0 mi East 4.6 mph - N/A   Overcast
5:55 AM 14.4 °F 8.6 °F 10.9 °F 86% 29.67 in 5.0 mi ESE 3.5 mph - N/A   Overcast
6:15 AM 16.9 °F 3.4 °F 12.6 °F 83% 29.66 in 10.0 mi South 12.7 mph 19.6 mph N/A   Overcast
6:35 AM 25.3 °F 12.6 °F 16.9 °F 70% 29.67 in 10.0 mi SSW 16.1 mph - N/A   Overcast
6:55 AM 24.4 °F 17.5 °F 15.3 °F 68% 29.70 in 10.0 mi SE 5.8 mph 18.4 mph N/A   Overcast
7:15 AM 15.4 °F 5.6 °F 11.3 °F 84% 29.71 in 0.8 mi East 6.9 mph - N/A   Overcast
7:35 AM 14.7 °F 0.1 °F 11.5 °F 87% 29.73 in 4.0 mi NE 13.8 mph 19.6 mph N/A   Overcast
7:55 AM 14.2 °F 2.2 °F 10.9 °F 87% 29.77 in 3.0 mi ENE 9.2 mph - N/A   Overcast
8:15 AM 13.6 °F 1.6 °F 10.4 °F 87% 29.78 in 1.5 mi East 9.2 mph - N/A   Overcast
8:35 AM 13.6 °F 1.6 °F 10.0 °F 86% 29.80 in 1.0 mi East 9.2 mph - N/A   Overcast
8:55 AM 13.8 °F 1.0 °F 10.0 °F 85% 29.82 in 1.0 mi East 10.4 mph - N/A   Overcast
9:15 AM 13.5 °F 1.3 °F 9.5 °F 84% 29.83 in 3.0 mi East 9.2 mph - N/A   Overcast
9:35 AM 13.6 °F 1.6 °F 9.5 °F 84% 29.84 in 4.0 mi East 9.2 mph - N/A   Overcast
9:55 AM 13.1 °F 0.9 °F 9.5 °F 86% 29.86 in 2.5 mi ENE 9.2 mph - N/A   Overcast
10:15 AM 12.9 °F 1.6 °F 9.1 °F 85% 29.87 in 1.2 mi ENE 8.1 mph - N/A   Overcast
10:35 AM 13.6 °F 3.5 °F 9.1 °F 82% 29.88 in 3.0 mi NE 6.9 mph - N/A   Overcast
10:55 AM 13.3 °F 3.0 °F 8.6 °F 82% 29.88 in 10.0 mi ENE 6.9 mph - N/A   Overcast
11:15 AM 13.3 °F 3.0 °F 8.4 °F 81% 29.88 in 10.0 mi ENE 6.9 mph - N/A   Overcast
11:35 AM 13.6 °F 4.6 °F 8.2 °F 79% 29.88 in 10.0 mi NE 5.8 mph - N/A   Overcast
11:55 AM 13.6 °F 2.5 °F 9.1 °F 82% 29.88 in 10.0 mi East 8.1 mph - N/A   Overcast
12:15 PM 14.0 °F 5.1 °F 9.7 °F 83% 29.87 in 7.0 mi East 5.8 mph - N/A   Overcast
12:35 PM 14.2 °F 8.4 °F 9.1 °F 80% 29.87 in 7.0 mi ESE 3.5 mph - N/A   Overcast
12:55 PM 14.7 °F 7.3 °F 9.1 °F 79% 29.86 in 10.0 mi East 4.6 mph - N/A   Overcast
1:15 PM 13.6 °F 7.7 °F 8.6 °F 80% 29.86 in 10.0 mi NNE 3.5 mph - N/A   Overcast
1:35 PM 13.5 °F 5.8 °F 8.4 °F 80% 29.86 in 10.0 mi North 4.6 mph - N/A   Overcast
1:55 PM 13.3 °F - 7.9 °F 79% 29.86 in 10.0 mi Calm Calm - N/A   Scattered Clouds
2:15 PM 13.1 °F - 7.5 °F 78% 29.86 in 10.0 mi Calm Calm - N/A   Clear
2:35 PM 13.1 °F - 7.3 °F 78% 29.86 in 10.0 mi Calm Calm - N/A   Clear
2:55 PM 13.3 °F - 7.3 °F 77% 29.86 in 10.0 mi Calm Calm - N/A   Clear
3:15 PM 13.1 °F - 7.3 °F 78% 29.86 in 10.0 mi Calm Calm - N/A   Clear
3:35 PM 13.6 °F - 7.5 °F 77% 29.84 in 10.0 mi Calm Calm - N/A   Scattered Clouds
3:55 PM 13.3 °F - 7.7 °F 78% 29.84 in 10.0 mi Calm Calm - N/A   Scattered Clouds
4:15 PM 12.6 °F - 7.5 °F 80% 29.84 in 10.0 mi Calm Calm - N/A   Scattered Clouds
4:35 PM 12.4 °F - 7.5 °F 81% 29.83 in 10.0 mi Calm Calm - N/A   Overcast
4:55 PM 12.4 °F - 7.5 °F 81% 29.82 in 10.0 mi Calm Calm - N/A   Overcast
5:15 PM 12.0 °F - 7.2 °F 81% 29.82 in 10.0 mi Calm Calm - N/A   Overcast
5:35 PM 12.0 °F - 7.3 °F 81% 29.82 in 10.0 mi Calm Calm - N/A   Overcast
5:55 PM 12.4 °F - 7.5 °F 81% 29.82 in 10.0 mi Calm Calm - N/A   Overcast
6:15 PM 12.7 °F - 7.7 °F 80% 29.83 in 10.0 mi Calm Calm - N/A   Overcast
6:35 PM 12.7 °F - 8.1 °F 82% 29.82 in 10.0 mi Calm Calm - N/A   Overcast
6:55 PM 12.7 °F - 8.1 °F 82% 29.81 in 10.0 mi Calm Calm - N/A   Overcast
7:15 PM 12.4 °F - 7.9 °F 82% 29.80 in 10.0 mi Calm Calm - N/A   Overcast
7:35 PM 12.4 °F - 7.9 °F 82% 29.79 in 10.0 mi Calm Calm - N/A   Overcast
7:55 PM 12.7 °F 6.7 °F 8.2 °F 82% 29.78 in 10.0 mi SW 3.5 mph - N/A   Overcast
8:15 PM 12.9 °F - 8.4 °F 82% 29.77 in 10.0 mi Calm Calm - N/A   Overcast
8:35 PM 13.1 °F - 8.4 °F 82% 29.76 in 10.0 mi Calm Calm - N/A   Overcast
8:55 PM 13.1 °F - 8.6 °F 82% 29.75 in 10.0 mi Calm Calm - N/A   Overcast
9:15 PM 13.8 °F - 8.8 °F 80% 29.74 in 10.0 mi Calm Calm - N/A   Overcast
9:35 PM 14.0 °F - 9.1 °F 81% 29.73 in 10.0 mi Calm Calm - N/A   Overcast
9:55 PM 14.7 °F - 9.7 °F 80% 29.73 in 10.0 mi Calm Calm - N/A   Overcast
10:15 PM 15.3 °F - 10.4 °F 81% 29.73 in 5.0 mi Calm Calm - N/A   Overcast
10:35 PM 15.6 °F - 11.3 °F 83% 29.73 in 2.5 mi Calm Calm - N/A   Overcast
10:55 PM 15.4 °F - 11.8 °F 86% 29.72 in 1.8 mi Calm Calm - N/A   Overcast
11:15 PM 15.6 °F - 12.0 °F 86% 29.71 in 1.2 mi Calm Calm - N/A   Overcast
11:35 PM 15.8 °F - 12.4 °F 86% 29.70 in 1.0 mi Calm Calm - N/A   Overcast
11:55 PM 15.8 °F - 12.6 °F 87% 29.70 in 1.5 mi Calm Calm - N/A   Overcast